sat.trackr.live / text

‹ back to catalog

LEMUR-2-MYRA

NORAD 66787 · 2025-276EB

PAYLOAD ACTIVE UNKNOWN

§ Identity

Operator
Country
US
Launch date
2025-11-28
Launch site
AFWTR
Launch vehicle
Mass (kg)
RCS (m²)

Purposes: earth_obs

External: N2YO · Heavens-Above · Gunter

§ Orbital elements

Epoch: 2026-09-20T03:24:19.342656Z

Period
95.93 min
Inclination
97.5324°
Eccentricity
0.0016435
Mean motion
15.01068450 rev/d
Perigee alt
552.2 km
Apogee alt
575.0 km
Semi-major
6,941.7 km
B*
3.4849e-4
RAAN
331.0027°
Arg perigee
185.0887°
Mean anomaly
175.0173°
Rev number
4,445

§ Raw data

LEMUR-2-MYRA1 66787U 25276EB  26263.14189054  .00004411  00000+0  34849-3 0  99972 66787  97.5324 331.0027 0016435 185.0887 175.0173 15.01068450 44459

JSON: /api/v1/satellites/66787 · /tle

For live sub-satellite position, see the globe view (requires WebGL).

§ Visibility from observer

Set your observer location to see the next 7 days of passes ≥ 10°. The values pass through the URL so the page stays shareable.

No JS? Fill the form by hand. The geolocation button needs JavaScript.